Location: Allos
(44.2333°N, 6.6333°E)
Time: 09:07:14
(UTC+00:00)

Cosmos 1603 - Pass Details

Date: 01 December 2020
Orbit: 831 x 859 km, 71.0° (Epoch: 25 January)

Event Time Altitude Azimuth Distance (km) Brightness Sun altitude
Rises 17:44:28 0° 203° (SSW) 3,375 7.3 -18.9°
Reaches altitude 10° 17:46:54 10° 203° (SSW) 2,441 6.6 -19.3°
Maximum altitude 17:52:31 90° 326° (NW) 839 3.6 -20.3°
Enters shadow 17:56:04 24° 25° (NNE) 1,683 4.9 -20.9°
